Regional Weather Roundup
Issued by NWS

Home | Current Version | Previous Version | Graphics & Text | Print | Product List | Glossary On
Versions: 1 2 3 4 5 6 7 8 9 10 11 12 13 14 15 16 17 18 19 20 21 22 23 24 25 26 27 28 29 30 31 32 33 34 35 36 37 38 39 40 41 42 43 44 45 46 47 48 49 50
789
ASUS43 KLMK 010310
RWRKY
KENTUCKY REGIONAL WEATHER ROUNDUP
NATIONAL WEATHER SERVICE LOUISVILLE KY
1100 PM EDT FRI SEP 30 2016

NOTE "FAIR" INDICATES FEW OR NO CLOUDS BELOW 12,000 FEET
WITH NO SIGNIFICANT WEATHER AND/OR OBSTRUCTIONS TO VISIBILITY.

KYZ001>023-026-027-061>063-070>075-010400-
WESTERN AND SOUTH CENTRAL KENTUCKY

CITY           SKY/WX    TMP DP  RH WIND       PRES   REMARKS
PADUCAH        PTCLDY    60  58  92 W6        30.02S
HENDERSON      PTCLDY    57  54  88 CALM      29.98S
OWENSBORO      MOCLDY   N/A N/A N/A S6        30.00S
HOPKINSVILLE   MOCLDY    59  59  98 SW8       30.02S
BOWLING GREEN  PTCLDY    59  57  93 CALM      30.02F
GLASGOW        MOCLDY    57  57 100 S3        30.03S
$$

KYZ024-025-028>034-038-045-046-053-010400-
NORTH CENTRAL KENTUCKY

CITY           SKY/WX    TMP DP  RH WIND       PRES   REMARKS
LOUISVILLE/SDF CLOUDY    57  55  93 S5        30.02R
LOUISVILLE/LOU CLOUDY    57  53  86 CALM      30.02S
FORT KNOX      FOG       52  52 100 CALM      30.00F VSB 1/4
$$

KYZ035>037-039>044-047>052-055>060-089>105-010400-
NORTHEAST KENTUCKY

CITY           SKY/WX    TMP DP  RH WIND       PRES   REMARKS
LEXINGTON      CLOUDY    56  52  86 SE3       30.04S
COVINGTON      CLOUDY    58  54  86 CALM      30.02S
FRANKFORT      CLOUDY    57  52  83 SE3       30.02S
$$

KYZ054-064>069-076>088-106>120-010400-
SOUTHEAST KENTUCKY

CITY           SKY/WX    TMP DP  RH WIND       PRES   REMARKS
JACKSON        CLEAR     55  49  80 SE5       30.06S
LONDON         CLEAR     54  50  86 CALM      30.06R
SOMERSET       CLOUDY    54  54 100 CALM      30.07S
MIDDLESBORO    CLEAR     52  51  96 CALM      30.08S
MONTICELLO     CLOUDY    54  53  97 VRB3      30.07S
$$





USA.gov is the U.S. government's official web portal to all federal, state and local government web resources and services.